Sigfox identifier Datetime Temperature Humidity SNR
003BFA79 2018-10-09 05:37:12 20.6 39 10.6
003BFA79 2018-10-09 01:19:37 20.6 39 10.6
003BFA79 2018-10-08 13:31:05 20.6 38 9.9
003BFA79 2018-10-08 11:22:16 20.6 37 10.2
003BFA79 2018-10-08 10:17:54 20.6 37 10.1
003BFA79 2018-10-08 07:04:37 20.5 37 10
003BFA79 2018-10-08 06:00:10 20.6 38 9.8
003BFA79 2018-10-08 03:51:23 20.6 38 9.9
003BFA79 2018-10-08 01:42:37 20.6 39 9.8
003BFA79 2018-10-08 00:38:15 20.6 39 9.7
003BFA79 2018-10-07 23:33:55 20.6 39 9.7
003BFA79 2018-10-07 22:29:36 20.6 39 9.7
003BFA79 2018-10-07 21:25:12 20.6 40 9.7
003BFA79 2018-10-07 17:07:32 20.6 40 9.8
003BFA79 2018-10-07 11:45:28 20.7 40 10
003BFA79 2018-10-07 07:27:49 20.8 41 10.2
003BFA79 2018-10-07 06:23:25 20.8 41 10.4
003BFA79 2018-10-07 05:19:02 20.8 41 10.4
003BFA79 2018-10-07 04:14:35 20.8 41 10.5
003BFA79 2018-10-07 03:10:10 20.8 41 10.7
003BFA79 2018-10-07 02:05:47 20.8 41 10.7
003BFA79 2018-10-06 23:56:53 20.8 41 10.8
003BFA79 2018-10-06 22:52:34 21 41 11.2
003BFA79 2018-10-06 21:48:04 21 41 11.3
003BFA79 2018-10-06 20:43:39 20.9 42 11.4
003BFA79 2018-10-06 19:39:17 20.9 42 11.5
003BFA79 2018-10-06 18:34:56 21 42 11.6
003BFA79 2018-10-06 17:30:36 21 42 11.7
003BFA79 2018-10-06 14:17:26 21 42 11.5
003BFA79 2018-10-06 13:13:03 21 42 11.6
003BFA79 2018-10-06 12:08:40 21 42 11.8
003BFA79 2018-10-06 11:04:20 21 42 11.9
003BFA79 2018-10-06 09:59:54 21 42 11.9
003BFA79 2018-10-06 07:50:58 21 42 11.9
003BFA79 2018-10-06 05:42:04 21.1 43 12.2
003BFA79 2018-10-06 04:37:40 21.1 43 12.4
003BFA79 2018-10-06 03:33:06 21.2 43 12.6
003BFA79 2018-10-06 02:28:37 21.3 44 12.9
003BFA79 2018-10-06 01:24:12 21.2 44 13.1
003BFA79 2018-10-06 00:19:53 21.3 44 13.2
003BFA79 2018-10-05 23:15:26 21.3 44 13.1
003BFA79 2018-10-05 22:10:59 21.3 44 13
003BFA79 2018-10-05 20:02:13 21.5 45 13
003BFA79 2018-10-05 18:57:53 21.5 45 12.9
003BFA79 2018-10-05 17:53:31 21.5 45 12.9
003BFA79 2018-10-05 16:49:02 21.5 46 13.9
003BFA79 2018-10-05 15:44:39 21.7 46 15.6
003BFA79 2018-10-05 14:40:16 21.9 55 0